This is the latest recevied weather packets stored in our database for station/object SQ3VAS-10. If no packets are shown the sender has not sent any weather packets the latest 10 day(s).
| Time | Temp. | Humidity | Pressure | Rain* | Wind** | Luminosity | Snow |
|---|---|---|---|---|---|---|---|
| 1777672886 | 11.67° C | 57% | 1026.2 hPa | - | - | - | - |
| 1777672315 | 11.67° C | 56% | 1026.1 hPa | - | - | - | - |
| 1777671742 | 12.22° C | 54% | 1026 hPa | - | - | - | - |
| 1777671172 | 12.78° C | 53% | 1025.9 hPa | - | - | - | - |
| 1777670598 | 12.78° C | 53% | 1026.1 hPa | - | - | - | - |
| 1777670024 | 13.33° C | 52% | 1026 hPa | - | - | - | - |
| 1777669452 | 13.33° C | 51% | 1026 hPa | - | - | - | - |
| 1777668880 | 13.89° C | 50% | 1026 hPa | - | - | - | - |
| 1777668308 | 14.44° C | 48% | 1025.9 hPa | - | - | - | - |
| 1777667737 | 15° C | 44% | 1026 hPa | - | - | - | - |
| 1777666596 | 15.56° C | 44% | 1026.1 hPa | - | - | - | - |
| 1777666025 | 16.11° C | 41% | 1026 hPa | - | - | - | - |
| 1777665453 | 16.67° C | 40% | 1026.1 hPa | - | - | - | - |
| 1777664882 | 17.22° C | 38% | 1026.1 hPa | - | - | - | - |
| 1777664311 | 17.22° C | 37% | 1026.1 hPa | - | - | - | - |
| 1777663740 | 17.78° C | 37% | 1025.9 hPa | - | - | - | - |
| 1777663168 | 18.33° C | 34% | 1025.8 hPa | - | - | - | - |
| 1777662594 | 18.89° C | 33% | 1025.8 hPa | - | - | - | - |
| 1777662024 | 19.44° C | 32% | 1025.8 hPa | - | - | - | - |
| 1777661451 | 20° C | 30% | 1025.7 hPa | - | - | - | - |
| 1777660879 | 20.56° C | 30% | 1025.6 hPa | - | - | - | - |
| 1777660310 | 21.11° C | 29% | 1025.7 hPa | - | - | - | - |
| 1777659735 | 21.67° C | 29% | 1025.6 hPa | - | - | - | - |
| 1777659164 | 22.22° C | 28% | 1025.3 hPa | - | - | - | - |
| 1777658593 | 23.33° C | 27% | 1025.3 hPa | - | - | - | - |
* Rain since midnight (hover to see other rain measurements)
** Current wind speed in m/s (hover to see current wind gust speed)